Retour au catalogue

STARLINK-11200

ActifCommunicationsVLEO
NORAD 60310·PAYLOAD·🇺🇸 United States

Lancé Jul 28, 2024 depuis Vandenberg Space Force Base

Loading…

Prochains Passages (prochaines 24 heures)

TLE

FraisSource: CelesTrak SupGP

Époque: Sep 14, 2026, 20:38 UTC

1 60310C 24133K   26257.86020833 -.00039413  00000+0 -32465-3 0  2576
2 60310  53.1570 293.3825 0001103  87.1512 123.2602 15.69730000    12

Suivez STARLINK-11200 en temps réel avec AllMySat

Download on the App Store